[[{"header":{"parameterUnit":"m.s-1","parameterCategory":2,"la1":30.2991,"la2":30.254,"lo1":-89.0895,"lo2":-89.0444,"dy":0.0017,"dx":0.0017,"nx":28,"ny":28,"refTime":"2024-08-20T09:00:00:Z","depth":"0","parameterNumber":2,"parameterNumberName":"U-component_of_CURRENTS"},"data":[0,0,0,0,0,0,0,0,0,0,0,0,0,0,0,0,0,0,0,0,0,0,0,0,0,0,0,0,0,0,0,0,0,0,0,0,0,0,0,0,0,0,0,0,0,0,0,0,0,0,0,0,0,0,0,0,0,0,0.1816,0.1818,0,0.1892,0.1892,0.1893,0.1893,0.1892,0.1892,0.1891,0.1925,0.1927,0.1928,0,0,0,0,0,0,0,0,0,0,0,0,0,0.165,0.1652,0.1816,0.1818,0.1819,0.1892,0.1892,0.1893,0.1893,0.1892,0.1892,0.1891,0.1925,0.1927,0.1928,0,0,0,0,0,0,0,0,0,0,0,0,0,0.1718,0.1653,0.1816,0.1832,0.1834,0.1892,0.1892,0.1893,0.1893,0.1892,0.1891,0.1891,0.1924,0.1926,0.1928,0.1956,0,0,0.1935,0.1936,0,0,0,0,0,0,0,0,0.1714,0.1724,0.1828,0.1831,0.1834,0.1887,0.1846,0.1914,0.1893,0.1865,0.1891,0.189,0.1913,0.1916,0.1925,0.1958,0.1959,0.1935,0.1936,0.1937,0.1938,0,0,0,0,0,0,0,0.171,0.172,0.1841,0.183,0.1833,0.1828,0.1836,0.1859,0.1887,0.1867,0.1869,0.1886,0.1913,0.1923,0.1925,0.196,0.1935,0.1937,0.1938,0.1939,0.2105,0.2108,0,0,0,0,0,0,0.1714,0.1716,0.1839,0.1844,0.1777,0.1832,0.1841,0.1866,0.1888,0.1892,0.1887,0.1886,0.1919,0.1923,0.1926,0.2006,0.1937,0.1939,0.194,0.2102,0.2105,0.2109,0,0,0,0,0,0,0.171,0.1724,0.1836,0.1785,0.1799,0.1836,0.1864,0.1868,0.1877,0.1904,0.1906,0.1891,0.1919,0.1924,0.1962,0.2005,0.194,0.1942,0.2098,0.2103,0.2107,0.2135,0,0,0,0,0,0,0.1705,0.1722,0.1737,0.1786,0.1803,0.1873,0.1865,0.187,0.1891,0.1891,0.1909,0.1912,0.1919,0.1959,0.1964,0.2007,0.1943,0.2094,0.21,0.2106,0.213,0.214,0.2149,0,0,0,0,0,0.1699,0.1722,0.1737,0.1752,0.1824,0.1874,0.1882,0.1901,0.1892,0.1903,0.1923,0.1911,0.2001,0.1962,0.1967,0.2012,0.2091,0.2098,0.2105,0.2126,0.2138,0.2149,0,0,0,0,0,0,0.166,0.1726,0.1744,0.1787,0.183,0.1876,0.1889,0.1902,0.1926,0.192,0.1934,0.194,0.1998,0.2007,0.1963,0.2085,0.2052,0.206,0.2066,0.2078,0.2087,0.212,0.1945,0,0,0,0,0,0.1661,0.1693,0.1755,0.179,0.181,0.1848,0.1869,0.1885,0.1917,0.1925,0.1944,0.198,0.2035,0.2052,0.2092,0.2141,0.2189,0.2184,0.2193,0.2201,0.2237,0.2358,0.2381,0.2132,0.2132,0.2132,0,0,0.1656,0.1698,0.1716,0.1783,0.1813,0.1849,0.1857,0.189,0.1926,0.1926,0.1969,0.2007,0.2058,0.2124,0.2152,0.213,0.2293,0.221,0.2215,0.2248,0.2368,0.2392,0.2413,0.2137,0.2136,0.2135,0,0,0.1664,0.1699,0.1727,0.1764,0.1819,0.1845,0.1856,0.1905,0.1931,0.1984,0.2011,0.209,0.2129,0.2206,0.2243,0.2335,0.234,0.2331,0.2397,0.2513,0.2534,0.2554,0.2618,0.2643,0.2332,0.2332,0.2332,0,0.166,0.1702,0.1742,0.1781,0.181,0.1843,0.1876,0.1917,0.1974,0.2024,0.2,0.2155,0.219,0.2323,0.236,0.236,0.2396,0.2337,0.2524,0.2544,0.2564,0.2625,0.2653,0.2334,0.2334,0.2334,0.2333,0,0.169,0.1722,0.1739,0.1798,0.1837,0.1865,0.1931,0.1974,0.2002,0.2063,0.2188,0.2255,0.2359,0.2384,0.2397,0.2561,0.253,0.2518,0.2486,0.259,0.2648,0.2676,0.2337,0.2337,0.2336,0.2335,0,0,0.1695,0.1747,0.1755,0.1784,0.1843,0.1886,0.195,0.2045,0.2115,0.2188,0.2295,0.2429,0.248,0.2533,0.2571,0.2674,0.2834,0.2649,0.2654,0.2697,0.3051,0.2954,0.2974,0.2835,0.2841,0.2845,0.3024,0,0.1706,0.1753,0.1787,0.1843,0.1871,0.193,0.2001,0.2097,0.2168,0.2276,0.24,0.2503,0.253,0.2576,0.27,0.2788,0.2913,0.2785,0.296,0.2966,0.2855,0.3007,0.2937,0.3085,0.3051,0.3056,0.3059,0,0.1732,0.1757,0.1791,0.1876,0.19,0.1938,0.2061,0.2134,0.2296,0.2358,0.2497,0.2572,0.2752,0.274,0.3002,0.2904,0.301,0.3078,0.3085,0.3015,0.2923,0.2986,0.3137,0.3065,0.3102,0.3099,0.3095,0,0.171,0.1776,0.1793,0.1816,0.1909,0.1952,0.2014,0.2159,0.2239,0.2403,0.2463,0.2678,0.2768,0.2948,0.3086,0.3056,0.3335,0.3309,0.334,0.3331,0.3324,0.3304,0.3421,0.3551,0.355,0.355,0.3549,0,0.171,0.174,0.1779,0.1792,0.1858,0.1937,0.2032,0.2127,0.2262,0.2369,0.2501,0.2606,0.2826,0.2987,0.3125,0.3302,0.3383,0.3404,0.3402,0.3325,0.3304,0.3278,0.3201,0.3556,0.3555,0.3554,0.3552,0,0.1693,0.1707,0.1743,0.1811,0.1838,0.1889,0.2004,0.2083,0.22,0.2328,0.2373,0.2582,0.2783,0.2974,0.3252,0.3331,0.3427,0.356,0.3418,0.3397,0.3323,0.3248,0.3271,0.3179,0.3643,0.3642,0.3642,0,0.1689,0.1692,0.1736,0.1753,0.1775,0.1849,0.1908,0.2035,0.2111,0.2311,0.2369,0.2579,0.2736,0.306,0.3258,0.3489,0.3412,0.3526,0.3491,0.3355,0.3273,0.313,0.304,0.3491,0.3489,0.3487,0.3486,0,0.1686,0.1684,0.1705,0.1726,0.176,0.1819,0.1899,0.194,0.2101,0.2201,0.2357,0.2485,0.2789,0.2997,0.3251,0.3386,0.3336,0.3497,0.3444,0.3251,0.3027,0.2921,0.3287,0.3472,0.3474,0.3475,0.3475,0.3476,0.1689,0.1691,0.1699,0.173,0.1754,0.1784,0.1819,0.1905,0.2008,0.2161,0.2301,0.2481,0.2774,0.3131,0.3204,0.33,0.3263,0.3314,0.3263,0.3153,0.298,0.3272,0.338,0.3381,0.3382,0.3382,0.3383,0,0.1711,0.1703,0.1716,0.1737,0.1741,0.1765,0.1823,0.185,0.1933,0.2105,0.2245,0.254,0.2749,0.2957,0.3169,0.3117,0.3009,0.3049,0.2884,0.283,0.3212,0.312,0.307,0.307,0.307,0.307,0.307,0.307,0.1724,0.1728,0.1725,0.1724,0.1727,0.173,0.1744,0.1779,0.1881,0.2046,0.2215,0.2379,0.267,0.2937,0.2988,0.2931,0.2725,0.2627,0.2573,0.2889,0.291,0.2931,0.2831,0.2722,0.2721,0.2148,0.2144,0.214]},{"header":{"parameterUnit":"m.s-1","parameterCategory":2,"la1":30.2991,"la2":30.254,"lo1":-89.0895,"lo2":-89.0444,"dy":0.0017,"dx":0.0017,"nx":28,"ny":28,"refTime":"2024-08-20T09:00:00:Z","depth":"0","parameterNumber":3,"parameterNumberName":"V-component_of_CURRENTS"},"data":[0,0,0,0,0,0,0,0,0,0,0,0,0,0,0,0,0,0,0,0,0,0,0,0,0,0,0,0,0,0,0,0,0,0,0,0,0,0,0,0,0,0,0,0,0,0,0,0,0,0,0,0,0,0,0,0,0,0,-0.0698,-0.07,0,-0.0817,-0.0818,-0.0818,-0.0884,-0.0885,-0.0886,-0.0887,-0.0864,-0.0863,-0.0862,0,0,0,0,0,0,0,0,0,0,0,0,0,-0.0446,-0.045,-0.0698,-0.07,-0.0702,-0.0817,-0.0818,-0.0819,-0.0884,-0.0885,-0.0886,-0.0887,-0.0865,-0.0863,-0.0862,0,0,0,0,0,0,0,0,0,0,0,0,0,-0.0553,-0.0451,-0.0697,-0.0753,-0.076,-0.0816,-0.0818,-0.0819,-0.0884,-0.0885,-0.0886,-0.0887,-0.0865,-0.0863,-0.0861,-0.0826,0,0,-0.0855,-0.0854,0,0,0,0,0,0,0,0,-0.0547,-0.0561,-0.0743,-0.075,-0.0757,-0.0843,-0.0721,-0.0816,-0.0884,-0.083,-0.0887,-0.0888,-0.0847,-0.0847,-0.0859,-0.0825,-0.0824,-0.0855,-0.0854,-0.0853,-0.0853,0,0,0,0,0,0,0,-0.0539,-0.0556,-0.0738,-0.0745,-0.0754,-0.0745,-0.0761,-0.0739,-0.0823,-0.0835,-0.0842,-0.0865,-0.0849,-0.0861,-0.0859,-0.0824,-0.0855,-0.0853,-0.0852,-0.0851,-0.0674,-0.067,0,0,0,0,0,0,-0.0542,-0.055,-0.0735,-0.0743,-0.066,-0.0749,-0.0767,-0.0809,-0.0827,-0.0834,-0.0863,-0.0867,-0.0864,-0.0861,-0.0858,-0.0739,-0.0853,-0.0851,-0.085,-0.0677,-0.0673,-0.0669,0,0,0,0,0,0,-0.0536,-0.0557,-0.073,-0.0652,-0.0675,-0.0753,-0.0799,-0.0811,-0.0822,-0.0851,-0.0854,-0.0864,-0.0865,-0.0861,-0.0816,-0.0741,-0.085,-0.0849,-0.0681,-0.0676,-0.0671,-0.0549,0,0,0,0,0,0,-0.0528,-0.0555,-0.056,-0.0654,-0.068,-0.0739,-0.0799,-0.0812,-0.0838,-0.0844,-0.0852,-0.0852,-0.0866,-0.0818,-0.0814,-0.074,-0.0847,-0.0686,-0.0679,-0.0673,-0.0557,-0.054,-0.0525,0,0,0,0,0,-0.0519,-0.0526,-0.056,-0.0582,-0.0694,-0.0738,-0.0748,-0.0803,-0.0837,-0.0821,-0.0826,-0.0852,-0.0773,-0.0814,-0.081,-0.0734,-0.0689,-0.0681,-0.0673,-0.0564,-0.0543,-0.0525,0,0,0,0,0,0,-0.041,-0.0537,-0.0576,-0.0619,-0.0665,-0.0752,-0.0745,-0.0792,-0.079,-0.0786,-0.0818,-0.0815,-0.0745,-0.0753,-0.0799,-0.066,-0.0729,-0.072,-0.0648,-0.0628,-0.0612,-0.0573,-0.0845,0,0,0,0,0,-0.0393,-0.0434,-0.0537,-0.0561,-0.0585,-0.0661,-0.0682,-0.0721,-0.0749,-0.0752,-0.0763,-0.0748,-0.0707,-0.0683,-0.0659,-0.0587,-0.0588,-0.053,-0.0514,-0.05,-0.0462,-0.0427,-0.0405,-0.0643,-0.0643,-0.0643,0,0,-0.0356,-0.0429,-0.0451,-0.0539,-0.058,-0.0576,-0.0674,-0.0695,-0.0668,-0.0743,-0.0689,-0.0696,-0.0677,-0.0597,-0.0564,-0.0595,-0.0428,-0.049,-0.0479,-0.0447,-0.0417,-0.0394,-0.0373,-0.0638,-0.0639,-0.0639,0,0,-0.0292,-0.0367,-0.0373,-0.04,-0.0463,-0.0503,-0.0506,-0.0579,-0.0583,-0.055,-0.0579,-0.0538,-0.0505,-0.0464,-0.0439,-0.0313,-0.035,-0.0309,-0.0188,-0.0155,-0.0135,-0.0118,-0.0076,-0.0056,-0.0294,-0.0294,-0.0294,0,-0.0238,-0.0271,-0.0368,-0.0362,-0.0366,-0.0461,-0.0431,-0.0439,-0.0478,-0.0448,-0.0507,-0.0421,-0.0425,-0.0293,-0.0257,-0.0272,-0.027,-0.027,-0.0135,-0.0118,-0.0103,-0.0064,-0.0043,-0.0287,-0.0288,-0.0289,-0.0289,0,-0.0177,-0.0184,-0.0178,-0.0207,-0.0213,-0.0203,-0.0243,-0.0222,-0.0252,-0.0262,-0.0174,-0.019,-0.0134,-0.0127,-0.0157,-0.0026,-0.0064,-0.013,-0.019,-0.0072,-0.0038,-0.0019,-0.0277,-0.028,-0.0282,-0.0284,0,0,-0.0116,-0.0135,-0.013,-0.0103,-0.0132,-0.013,-0.006,-0.0026,0.004,0.002,0.0114,0.0162,0.0128,0.0156,0.0124,0.0151,0.0247,0.0062,0.006,0.0096,0.0329,0.0228,0.0237,0.0185,0.0189,0.0192,0.0312,0,-0.0035,0.0013,-0.0015,0.0074,0.0098,0.0073,0.0152,0.0184,0.0193,0.0266,0.0271,0.0339,0.0246,0.0269,0.0291,0.025,0.0301,0.0222,0.0218,0.0219,0.0106,0.0258,0.0188,0.0282,0.033,0.0333,0.0336,0,0.0031,0.0053,0.0134,0.0211,0.0223,0.0277,0.0377,0.0437,0.0522,0.0533,0.0592,0.0568,0.0643,0.0514,0.0551,0.0495,0.0448,0.0402,0.0403,0.0284,0.0154,0.0171,0.0313,0.0102,0.0364,0.0362,0.036,0,0.01,0.0168,0.0238,0.0258,0.0324,0.0389,0.0442,0.0525,0.0598,0.0702,0.0753,0.0811,0.0842,0.0798,0.0686,0.0628,0.0692,0.0598,0.0487,0.0479,0.0412,0.0391,0.0345,0.0659,0.0658,0.0658,0.0658,0,0.0179,0.0245,0.028,0.0319,0.0448,0.0469,0.0616,0.0677,0.078,0.0898,0.0893,0.0984,0.0905,0.0906,0.0791,0.0704,0.0784,0.0564,0.0521,0.0453,0.0435,0.0235,0.0144,0.0662,0.0661,0.0661,0.066,0,0.0244,0.026,0.0352,0.0435,0.0474,0.0567,0.0698,0.0806,0.0885,0.1036,0.1075,0.1142,0.1141,0.1043,0.0986,0.0844,0.0645,0.0708,0.0634,0.0579,0.0237,0.0157,0.0141,0.0057,0.0632,0.063,0.0629,0,0.0287,0.0332,0.0425,0.0489,0.053,0.0657,0.0753,0.0851,0.0955,0.113,0.1215,0.1271,0.1319,0.12,0.0967,0.0798,0.063,0.0611,0.0487,0.0258,0.0138,0.0084,0.0011,0.0467,0.0464,0.0462,0.046,0,0.0381,0.0399,0.0466,0.0581,0.068,0.0802,0.0937,0.1023,0.1159,0.1278,0.1438,0.1493,0.1372,0.1187,0.0926,0.0764,0.0438,0.0559,0.0358,0.0059,-0.0031,-0.0149,0.0347,0.0442,0.0444,0.0445,0.0446,0.0447,0.0457,0.0519,0.0593,0.0709,0.081,0.0942,0.1055,0.1185,0.1354,0.1539,0.1577,0.1668,0.1364,0.0995,0.0751,0.023,0.03,0.0058,0.0005,-0.0011,-0.0167,0.0284,0.0281,0.0282,0.0283,0.0283,0.0284,0,0.0564,0.0623,0.0727,0.0859,0.0966,0.1005,0.118,0.1287,0.1473,0.1628,0.1745,0.1607,0.1202,0.0781,0.0118,-0.0253,-0.0369,-0.0447,-0.0538,-0.0568,-0.0135,-0.0229,-0.0389,-0.0389,-0.0389,-0.0388,-0.0388,-0.0388,0.0634,0.0741,0.0783,0.0974,0.1058,0.1215,0.131,0.1451,0.1578,0.1737,0.1773,0.1783,0.14,0.0268,-0.0572,-0.0759,-0.0975,-0.1026,-0.11,-0.0848,-0.0806,-0.0765,-0.0879,-0.1172,-0.1173,-0.1535,-0.1539,-0.1542]}],[{"header":{"parameterUnit":"m.s-1","parameterCategory":2,"la1":30.2991,"la2":30.254,"lo1":-89.0895,"lo2":-89.0444,"dy":0.0017,"dx":0.0017,"nx":28,"ny":28,"refTime":"2024-08-20T09:00:00:Z","depth":"2","parameterNumber":2,"parameterNumberName":"U-component_of_CURRENTS"},"data":[0,0,0,0,0,0,0,0,0,0,0,0,0,0,0,0,0,0,0,0,0,0,0,0,0,0,0,0,0,0,0,0,0,0,0,0,0,0,0,0,0,0,0,0,0,0,0,0,0,0,0,0,0,0,0,0,0,0,0.1547,0.1547,0,0.1554,0.1554,0.1554,0.1547,0.1546,0.1546,0.1546,0.1608,0.1609,0.1611,0,0,0,0,0,0,0,0,0,0,0,0,0,0.1521,0.1521,0.1547,0.1547,0.1548,0.1554,0.1554,0.1554,0.1547,0.1546,0.1546,0.1546,0.1607,0.1609,0.1611,0,0,0,0,0,0,0,0,0,0,0,0,0,0.1529,0.1521,0.1547,0.1546,0.1546,0.1554,0.1554,0.1554,0.1547,0.1546,0.1546,0.1546,0.1606,0.1609,0.1612,0.1633,0,0,0.162,0.1621,0,0,0,0,0,0,0,0,0.1529,0.153,0.1546,0.1546,0.1546,0.155,0.1567,0.1583,0.1547,0.1545,0.1546,0.1546,0.1594,0.1598,0.1597,0.1636,0.1639,0.162,0.1622,0.1623,0.1624,0,0,0,0,0,0,0,0.1528,0.153,0.1549,0.1546,0.1546,0.1542,0.1542,0.1569,0.1571,0.1545,0.1545,0.1547,0.1594,0.1595,0.1599,0.164,0.162,0.1622,0.1624,0.1625,0.1783,0.1785,0,0,0,0,0,0,0.153,0.1529,0.1549,0.1549,0.1537,0.1542,0.1543,0.1548,0.157,0.1573,0.1548,0.1547,0.159,0.1596,0.1601,0.1695,0.1623,0.1625,0.1627,0.178,0.1784,0.1786,0,0,0,0,0,0,0.153,0.1532,0.1548,0.154,0.1542,0.1543,0.1548,0.1548,0.156,0.1571,0.1575,0.1561,0.159,0.1597,0.1659,0.1694,0.1627,0.1629,0.1777,0.1781,0.1785,0.1839,0,0,0,0,0,0,0.1529,0.1532,0.1538,0.154,0.1542,0.157,0.1549,0.1549,0.1562,0.1561,0.1584,0.1588,0.1591,0.1656,0.1662,0.1697,0.1631,0.1774,0.1779,0.1784,0.1834,0.1845,0.1853,0,0,0,0,0,0.1528,0.1538,0.1538,0.1541,0.155,0.1572,0.1573,0.1572,0.1563,0.1579,0.1606,0.1588,0.169,0.166,0.1667,0.1703,0.1772,0.1778,0.1783,0.183,0.1843,0.1853,0,0,0,0,0,0,0.1531,0.1539,0.1539,0.1551,0.1569,0.1571,0.1581,0.1582,0.1612,0.1616,0.1622,0.1631,0.1698,0.17,0.1667,0.1766,0.1728,0.1735,0.1761,0.1773,0.1782,0.1745,0.1633,0,0,0,0,0,0.1535,0.1544,0.1556,0.1569,0.1577,0.1582,0.1589,0.1595,0.1618,0.1629,0.1653,0.1685,0.1725,0.1748,0.1782,0.1837,0.1824,0.1867,0.1876,0.1884,0.1862,0.1888,0.1897,0.1805,0.1805,0.1805,0,0,0.1543,0.1545,0.1553,0.1571,0.1578,0.161,0.1586,0.1609,0.164,0.1635,0.1693,0.1721,0.1749,0.1814,0.1843,0.1821,0.191,0.1891,0.1898,0.187,0.1895,0.1904,0.1911,0.1809,0.1809,0.1808,0,0,0.1566,0.1564,0.1584,0.1604,0.1625,0.1633,0.1645,0.1669,0.1681,0.175,0.1751,0.1792,0.187,0.1878,0.1896,0.1978,0.1962,0.2009,0.2024,0.2051,0.2058,0.2063,0.2077,0.2083,0.2011,0.2011,0.2011,0,0.1577,0.1595,0.1596,0.1627,0.1636,0.1649,0.1678,0.1706,0.1753,0.1761,0.1785,0.1872,0.1893,0.1937,0.1971,0.1994,0.201,0.1974,0.206,0.2065,0.207,0.2082,0.2088,0.2015,0.2014,0.2014,0.2013,0,0.162,0.1638,0.1651,0.169,0.1708,0.1733,0.1766,0.1798,0.1825,0.1847,0.1909,0.1947,0.1987,0.2015,0.2023,0.2068,0.2071,0.2069,0.202,0.2081,0.2092,0.2097,0.2019,0.2018,0.2017,0.2016,0,0,0.1633,0.1671,0.1677,0.169,0.1734,0.175,0.1804,0.1835,0.186,0.1929,0.1961,0.203,0.2036,0.2055,0.2068,0.209,0.2147,0.2101,0.2101,0.2095,0.2213,0.214,0.2138,0.2174,0.2174,0.2175,0.2213,0,0.1661,0.1703,0.1719,0.1767,0.1785,0.1805,0.1846,0.1882,0.1924,0.1974,0.2,0.2057,0.2059,0.2089,0.2112,0.2146,0.2161,0.2136,0.217,0.217,0.2081,0.2142,0.2027,0.2044,0.2217,0.2218,0.2219,0,0.1693,0.171,0.1745,0.1772,0.1781,0.1821,0.1851,0.1899,0.196,0.1992,0.2039,0.2076,0.2122,0.2122,0.2181,0.2177,0.219,0.2206,0.2208,0.2112,0.2105,0.201,0.2046,0.2227,0.2226,0.2226,0.2225,0,0.1671,0.1724,0.1735,0.1751,0.1799,0.1813,0.1848,0.1901,0.1925,0.201,0.2048,0.2105,0.2152,0.2187,0.2226,0.2222,0.2286,0.2281,0.2215,0.221,0.2097,0.208,0.2298,0.2298,0.2298,0.2298,0.2298,0,0.1673,0.169,0.1729,0.1739,0.1762,0.1805,0.1835,0.1883,0.194,0.1977,0.2058,0.2098,0.2176,0.2225,0.2245,0.2249,0.2302,0.2211,0.2214,0.2117,0.2102,0.224,0.2233,0.2299,0.2299,0.2299,0.2298,0,0.1648,0.1672,0.1694,0.1736,0.1751,0.1776,0.1824,0.1844,0.192,0.1977,0.2009,0.2108,0.2175,0.2227,0.2287,0.2265,0.228,0.2257,0.213,0.2115,0.2179,0.2175,0.219,0.2188,0.2186,0.2184,0.2183,0,0.1635,0.1641,0.1682,0.169,0.1711,0.1747,0.176,0.1827,0.185,0.1972,0.1992,0.2088,0.2128,0.2189,0.2192,0.2202,0.2234,0.2069,0.2013,0.2166,0.2168,0.2167,0.2165,0.1905,0.1901,0.1898,0.1896,0,0.1601,0.1615,0.1626,0.1643,0.1659,0.168,0.1716,0.1724,0.1809,0.1849,0.1914,0.1964,0.2052,0.2018,0.204,0.2026,0.2061,0.2006,0.2221,0.1938,0.1897,0.1899,0.1907,0.187,0.1873,0.1875,0.1876,0.1877,0.1561,0.1564,0.1566,0.1581,0.1601,0.1607,0.1605,0.1624,0.1638,0.1692,0.1784,0.1821,0.1872,0.1841,0.1805,0.1794,0.1904,0.1833,0.1842,0.1855,0.1803,0.1759,0.1698,0.1699,0.17,0.1702,0.1703,0,0.1479,0.1493,0.15,0.1504,0.1495,0.1543,0.1557,0.1519,0.1497,0.1574,0.1602,0.1516,0.153,0.1591,0.1546,0.1539,0.1538,0.1475,0.1474,0.1502,0.1526,0.1457,0.126,0.1258,0.1256,0.1255,0,0,0.1432,0.1402,0.1408,0.1378,0.1403,0.1381,0.1385,0.1332,0.1351,0.1298,0.1326,0.1461,0.1556,0.1377,0.1365,0.131,0.1392,0.1269,0.1633,0.1661,0.1682,0.175,0.1676,0,0,0,0,0]},{"header":{"parameterUnit":"m.s-1","parameterCategory":2,"la1":30.2991,"la2":30.254,"lo1":-89.0895,"lo2":-89.0444,"dy":0.0017,"dx":0.0017,"nx":28,"ny":28,"refTime":"2024-08-20T09:00:00:Z","depth":"2","parameterNumber":3,"parameterNumberName":"V-component_of_CURRENTS"},"data":[0,0,0,0,0,0,0,0,0,0,0,0,0,0,0,0,0,0,0,0,0,0,0,0,0,0,0,0,0,0,0,0,0,0,0,0,0,0,0,0,0,0,0,0,0,0,0,0,0,0,0,0,0,0,0,0,0,0,-0.0111,-0.0113,0,-0.0278,-0.028,-0.0282,-0.0398,-0.0399,-0.04,-0.0401,-0.0527,-0.053,-0.0532,0,0,0,0,0,0,0,0,0,0,0,0,0,-0.0077,-0.0076,-0.0111,-0.0113,-0.0115,-0.0278,-0.028,-0.0282,-0.0398,-0.0399,-0.04,-0.0401,-0.0526,-0.0529,-0.0533,0,0,0,0,0,0,0,0,0,0,0,0,0,-0.0153,-0.0076,-0.011,-0.0192,-0.0201,-0.0277,-0.028,-0.0283,-0.0398,-0.0399,-0.04,-0.0401,-0.0525,-0.0529,-0.0533,-0.0531,0,0,-0.0545,-0.0546,0,0,0,0,0,0,0,0,-0.0148,-0.0153,-0.0178,-0.0186,-0.0197,-0.0318,-0.0315,-0.0364,-0.0397,-0.0323,-0.0401,-0.0402,-0.0452,-0.0462,-0.0492,-0.0537,-0.0542,-0.0545,-0.0547,-0.0549,-0.055,0,0,0,0,0,0,0,-0.0142,-0.0148,-0.0177,-0.018,-0.0191,-0.0284,-0.0294,-0.0326,-0.0378,-0.033,-0.0339,-0.0356,-0.0458,-0.0488,-0.0496,-0.0544,-0.0545,-0.0548,-0.0551,-0.0552,-0.0622,-0.0621,0,0,0,0,0,0,-0.0109,-0.0142,-0.0172,-0.0182,-0.0175,-0.0283,-0.0295,-0.0278,-0.0379,-0.0396,-0.0355,-0.0361,-0.0481,-0.0491,-0.05,-0.0519,-0.0549,-0.0553,-0.0555,-0.0622,-0.0622,-0.0621,0,0,0,0,0,0,-0.0107,-0.0109,-0.0165,-0.0169,-0.0182,-0.028,-0.0262,-0.0281,-0.0331,-0.0398,-0.0415,-0.0389,-0.0482,-0.0495,-0.0549,-0.0524,-0.0554,-0.0558,-0.0623,-0.0622,-0.0621,-0.0546,0,0,0,0,0,0,-0.0105,-0.0106,-0.0095,-0.0164,-0.018,-0.0221,-0.0262,-0.0283,-0.0339,-0.0349,-0.0432,-0.0444,-0.0484,-0.0543,-0.0553,-0.053,-0.0561,-0.0623,-0.0622,-0.0622,-0.0549,-0.0543,-0.0538,0,0,0,0,0,-0.0103,-0.0083,-0.0093,-0.0098,-0.0156,-0.0222,-0.0239,-0.0316,-0.0339,-0.0365,-0.0421,-0.0443,-0.0544,-0.0547,-0.0558,-0.0536,-0.0624,-0.0623,-0.0622,-0.0552,-0.0544,-0.0538,0,0,0,0,0,0,-0.0078,-0.0095,-0.0107,-0.0096,-0.0157,-0.0242,-0.0273,-0.0316,-0.0382,-0.0392,-0.0451,-0.0467,-0.05,-0.0532,-0.0534,-0.0553,-0.0581,-0.0582,-0.0524,-0.0517,-0.0512,-0.0491,-0.0564,0,0,0,0,0,-0.0057,-0.0042,-0.0091,-0.0091,-0.0111,-0.0189,-0.0228,-0.0278,-0.0341,-0.0373,-0.0428,-0.0474,-0.05,-0.0523,-0.0561,-0.0578,-0.061,-0.0567,-0.0561,-0.0556,-0.0546,-0.0591,-0.0589,-0.0618,-0.0618,-0.0618,0,0,-0.0063,-0.006,-0.0063,-0.0085,-0.0134,-0.0155,-0.0217,-0.0275,-0.0291,-0.0372,-0.0415,-0.0462,-0.0503,-0.0524,-0.0539,-0.0551,-0.0562,-0.0554,-0.055,-0.0543,-0.059,-0.0587,-0.0585,-0.0617,-0.0617,-0.0617,0,0,-0.0058,-0.0046,-0.0037,-0.0063,-0.0116,-0.0151,-0.0163,-0.0245,-0.0282,-0.0325,-0.0376,-0.0422,-0.0468,-0.0501,-0.0514,-0.05,-0.0533,-0.0496,-0.0448,-0.0491,-0.0489,-0.0488,-0.0513,-0.0514,-0.049,-0.049,-0.049,0,-0.0057,-0.0028,-0.0058,-0.005,-0.0061,-0.0137,-0.014,-0.0183,-0.0276,-0.0298,-0.0327,-0.0406,-0.0451,-0.0465,-0.0457,-0.0485,-0.0507,-0.0469,-0.0483,-0.0483,-0.0482,-0.0509,-0.0511,-0.0486,-0.0486,-0.0487,-0.0487,0,-0.0048,-0.0021,-0.002,-0.0007,-0.0036,-0.0049,-0.0096,-0.0135,-0.0174,-0.022,-0.0263,-0.0334,-0.0379,-0.0391,-0.0416,-0.0425,-0.0439,-0.0473,-0.0498,-0.0475,-0.0504,-0.0508,-0.0481,-0.0482,-0.0483,-0.0484,0,0,-0.002,-0.0009,-0.0001,0.0017,0.0,-0.0023,-0.0034,-0.0069,-0.0081,-0.0156,-0.0169,-0.0225,-0.0276,-0.0295,-0.0341,-0.0376,-0.0394,-0.0409,-0.0413,-0.0428,-0.047,-0.0464,-0.0468,-0.0427,-0.0427,-0.0428,-0.0487,0,0.0009,0.0057,0.0047,0.0074,0.0096,0.005,0.0045,-0.0002,-0.0043,-0.0079,-0.0145,-0.0174,-0.0231,-0.0245,-0.029,-0.037,-0.0403,-0.0374,-0.0496,-0.0499,-0.0492,-0.0472,-0.043,-0.0478,-0.0491,-0.0492,-0.0492,0,0.0045,0.0084,0.0128,0.0147,0.0147,0.0148,0.0136,0.0117,0.0057,0.0022,-0.0025,-0.0083,-0.0134,-0.0186,-0.0308,-0.0283,-0.0362,-0.0429,-0.0434,-0.0456,-0.05,-0.0507,-0.0485,-0.05,-0.0499,-0.0499,-0.0498,0,0.0106,0.0146,0.0195,0.0205,0.0203,0.0208,0.0202,0.0151,0.0141,0.0098,0.0088,-0.0001,-0.0028,-0.0145,-0.0279,-0.0289,-0.0414,-0.0456,-0.0526,-0.0527,-0.0529,-0.0529,-0.054,-0.054,-0.054,-0.054,-0.054,0,0.0174,0.0212,0.0233,0.0261,0.0305,0.0276,0.0294,0.0268,0.0236,0.0235,0.0155,0.0136,-0.0017,-0.0111,-0.0247,-0.0388,-0.0395,-0.0508,-0.0541,-0.05,-0.0496,-0.0552,-0.0552,-0.0542,-0.0542,-0.0541,-0.0541,0,0.0227,0.0245,0.0306,0.033,0.0338,0.0372,0.0373,0.037,0.0346,0.035,0.035,0.0251,0.0131,-0.0032,-0.0218,-0.0331,-0.0481,-0.0532,-0.046,-0.0483,-0.0572,-0.0568,-0.0614,-0.0614,-0.0614,-0.0614,-0.0614,0,0.0257,0.0299,0.0361,0.0393,0.0411,0.0449,0.0454,0.0435,0.0434,0.0411,0.0413,0.0325,0.0246,-0.0011,-0.0219,-0.0435,-0.0481,-0.0524,-0.0546,-0.0551,-0.058,-0.0575,-0.0571,-0.052,-0.0519,-0.0519,-0.0518,0,0.0311,0.0336,0.0374,0.0446,0.0482,0.0517,0.0538,0.0558,0.0531,0.0529,0.0498,0.0447,0.0243,0.0037,-0.0219,-0.0365,-0.0486,-0.052,-0.0554,-0.0502,-0.0467,-0.0493,-0.0491,-0.0514,-0.0514,-0.0514,-0.0515,-0.0515,0.0333,0.0375,0.0413,0.0476,0.0528,0.0564,0.0596,0.0598,0.0604,0.0611,0.0564,0.0512,0.0307,-0.0018,-0.0237,-0.0442,-0.0467,-0.0542,-0.0543,-0.0544,-0.0516,-0.0483,-0.0527,-0.0528,-0.0528,-0.0528,-0.0529,0,0.0329,0.0367,0.0427,0.049,0.0536,0.0571,0.0618,0.0635,0.0647,0.0672,0.065,0.0473,0.0264,0.0045,-0.0252,-0.0452,-0.0463,-0.0504,-0.0479,-0.0482,-0.0486,-0.0454,-0.0449,-0.045,-0.045,-0.045,0,0,0.0318,0.0352,0.0381,0.0453,0.0518,0.0585,0.0627,0.0665,0.0698,0.0692,0.0687,0.0633,0.0357,0.0155,-0.0116,-0.0272,-0.0325,-0.0297,-0.0342,-0.0284,-0.0284,-0.0492,-0.0445,0,0,0,0,0]}],[{"header":{"parameterUnit":"m.s-1","parameterCategory":2,"la1":30.2991,"la2":30.254,"lo1":-89.0895,"lo2":-89.0444,"dy":0.0017,"dx":0.0017,"nx":28,"ny":28,"refTime":"2024-08-20T09:00:00:Z","depth":"4","parameterNumber":2,"parameterNumberName":"U-component_of_CURRENTS"},"data":[0,0,0,0,0,0,0,0,0,0,0,0,0,0,0,0,0,0,0,0,0,0,0,0,0,0,0,0,0,0,0,0,0,0,0,0,0,0,0,0,0,0,0,0,0,0,0,0,0,0,0,0,0,0,0,0,0,0,0.0588,0.0588,0,0.0589,0.0589,0.0589,0.0612,0.0612,0.0613,0.0614,0.0679,0.068,0.0681,0,0,0,0,0,0,0,0,0,0,0,0,0,0.0623,0.0622,0.0588,0.0588,0.0588,0.0589,0.0589,0.0589,0.0612,0.0612,0.0613,0.0614,0.0679,0.068,0.0682,0,0,0,0,0,0,0,0,0,0,0,0,0,0.0613,0.0622,0.0588,0.0601,0.0602,0.0589,0.0589,0.0589,0.0611,0.0612,0.0614,0.0615,0.0679,0.068,0.0682,0.067,0,0,0.0687,0.0687,0,0,0,0,0,0,0,0,0.0613,0.0611,0.0599,0.06,0.0602,0.0603,0.0625,0.062,0.0611,0.0606,0.0614,0.0615,0.066,0.0663,0.0658,0.0673,0.0675,0.0687,0.0688,0.0688,0.0689,0,0,0,0,0,0,0,0.0614,0.0612,0.0587,0.0599,0.0601,0.0613,0.0612,0.0624,0.0627,0.0607,0.0609,0.0611,0.0661,0.0656,0.066,0.0676,0.0687,0.0688,0.0689,0.069,0.0782,0.0783,0,0,0,0,0,0,0.0615,0.0612,0.0587,0.0587,0.0612,0.0611,0.0611,0.06,0.0625,0.063,0.061,0.0612,0.0653,0.0658,0.0662,0.0733,0.0688,0.069,0.0691,0.078,0.0782,0.0784,0,0,0,0,0,0,0.0615,0.0612,0.0587,0.0602,0.06,0.061,0.0597,0.0599,0.0632,0.0628,0.0634,0.0645,0.0654,0.066,0.0701,0.0732,0.0691,0.0692,0.0779,0.0781,0.0783,0.0821,0,0,0,0,0,0,0.0616,0.0612,0.0612,0.0601,0.0599,0.0599,0.0597,0.0599,0.063,0.0634,0.0659,0.0664,0.0655,0.0699,0.0703,0.0734,0.0693,0.0777,0.078,0.0782,0.0818,0.0824,0.0829,0,0,0,0,0,0.0617,0.0609,0.0611,0.0609,0.0596,0.06,0.06,0.061,0.0631,0.0645,0.0667,0.0665,0.072,0.0701,0.0705,0.0738,0.0775,0.0779,0.0782,0.0815,0.0823,0.0829,0,0,0,0,0,0,0.0629,0.0611,0.0613,0.0602,0.0611,0.0605,0.0617,0.0633,0.0659,0.0673,0.0679,0.0685,0.0731,0.0733,0.0713,0.0774,0.075,0.0754,0.0773,0.078,0.0786,0.0782,0.0695,0,0,0,0,0,0.0629,0.0619,0.0614,0.0611,0.0618,0.0628,0.0637,0.0646,0.0663,0.0677,0.0692,0.0716,0.074,0.0761,0.0772,0.0807,0.0798,0.0834,0.084,0.0845,0.0846,0.0853,0.0859,0.0795,0.0795,0.0795,0,0,0.0635,0.0624,0.062,0.0614,0.0622,0.0632,0.0637,0.0658,0.0679,0.068,0.072,0.0735,0.0754,0.0787,0.0809,0.0799,0.086,0.0849,0.0853,0.0851,0.0857,0.0863,0.0868,0.0797,0.0797,0.0796,0,0,0.064,0.0634,0.0631,0.0637,0.0652,0.0655,0.0674,0.0685,0.0708,0.0742,0.0752,0.0784,0.0822,0.083,0.0845,0.0893,0.0887,0.0915,0.0946,0.0954,0.0958,0.0963,0.0959,0.0963,0.0923,0.0923,0.0923,0,0.0649,0.0642,0.0636,0.0641,0.0656,0.0674,0.0693,0.0709,0.0735,0.0758,0.0764,0.0824,0.0836,0.0883,0.0901,0.0905,0.091,0.0915,0.096,0.0964,0.0967,0.0963,0.0966,0.0925,0.0925,0.0924,0.0924,0,0.065,0.0656,0.0661,0.0667,0.0684,0.0704,0.0725,0.0753,0.0787,0.08,0.0858,0.087,0.0907,0.0923,0.0929,0.0974,0.097,0.096,0.0936,0.0975,0.0969,0.0972,0.0928,0.0927,0.0927,0.0926,0,0,0.0633,0.0657,0.066,0.0679,0.0705,0.0719,0.0761,0.0798,0.0833,0.0863,0.0908,0.095,0.0964,0.0981,0.0997,0.1009,0.1035,0.1007,0.1006,0.0995,0.1056,0.1038,0.1038,0.1042,0.1043,0.1043,0.1041,0,0.0641,0.0663,0.0673,0.0711,0.0729,0.0761,0.0794,0.0832,0.0869,0.0907,0.0941,0.0984,0.0987,0.1018,0.1031,0.1036,0.1045,0.1036,0.1028,0.1027,0.0998,0.1042,0.1046,0.1043,0.1043,0.1044,0.1044,0,0.063,0.0653,0.0694,0.0741,0.0754,0.0779,0.0845,0.0878,0.093,0.0962,0.1009,0.103,0.1072,0.106,0.1084,0.1086,0.1078,0.1071,0.107,0.104,0.1014,0.0997,0.1048,0.1048,0.1048,0.1047,0.1047,0,0.0619,0.0661,0.0703,0.0718,0.0772,0.0807,0.0844,0.0898,0.0933,0.1003,0.1035,0.1078,0.1113,0.1113,0.1118,0.1108,0.1128,0.1102,0.1072,0.107,0.1066,0.1062,0.1107,0.1107,0.1107,0.1107,0.1107,0,0.0606,0.0635,0.0704,0.0723,0.0774,0.0816,0.0872,0.0915,0.0972,0.1011,0.1067,0.1103,0.1132,0.115,0.1133,0.1123,0.1141,0.1084,0.1074,0.1084,0.1081,0.1068,0.1064,0.1106,0.1107,0.1107,0.1107,0,0.0571,0.0618,0.0664,0.0741,0.0768,0.0805,0.088,0.0908,0.098,0.1035,0.1064,0.1132,0.1167,0.118,0.1181,0.1147,0.1129,0.1117,0.1135,0.1124,0.1056,0.1054,0.107,0.107,0.1069,0.1069,0.1069,0,0.055,0.0574,0.067,0.0701,0.0737,0.0799,0.0832,0.0907,0.094,0.1043,0.106,0.1133,0.117,0.1154,0.1172,0.1149,0.1135,0.1115,0.1078,0.1067,0.1055,0.1054,0.1052,0.1068,0.1068,0.1068,0.1068,0,0.0511,0.0557,0.0601,0.0667,0.0713,0.0759,0.0819,0.0837,0.0925,0.0995,0.1047,0.1077,0.112,0.1132,0.114,0.1114,0.1122,0.111,0.1109,0.1074,0.1064,0.1053,0.1052,0.1066,0.1066,0.1067,0.1067,0,0.0481,0.0502,0.057,0.0622,0.0675,0.0706,0.0745,0.0794,0.0839,0.0954,0.0969,0.1046,0.1112,0.1114,0.1112,0.1106,0.1077,0.1029,0.1033,0.1035,0.1027,0.101,0.0994,0,0,0,0,0,0.0448,0.0473,0.0517,0.0573,0.062,0.0655,0.0728,0.0767,0.0853,0.087,0.0921,0.0962,0.0999,0.1036,0.1018,0.1082,0.1069,0.1058,0.1011,0.1058,0.1059,0.1056,0,0,0,0,0,0,0.0425,0.0466,0.0499,0.0521,0.0545,0.0589,0.0633,0.0692,0.0713,0.0807,0.0831,0.091,0.0951,0.0994,0.1,0.101,0.0965,0.1108,0.1106,0.1057,0.1058,0.106,0.1057,0,0,0,0,0]},{"header":{"parameterUnit":"m.s-1","parameterCategory":2,"la1":30.2991,"la2":30.254,"lo1":-89.0895,"lo2":-89.0444,"dy":0.0017,"dx":0.0017,"nx":28,"ny":28,"refTime":"2024-08-20T09:00:00:Z","depth":"4","parameterNumber":3,"parameterNumberName":"V-component_of_CURRENTS"},"data":[0,0,0,0,0,0,0,0,0,0,0,0,0,0,0,0,0,0,0,0,0,0,0,0,0,0,0,0,0,0,0,0,0,0,0,0,0,0,0,0,0,0,0,0,0,0,0,0,0,0,0,0,0,0,0,0,0,0,0.034,0.034,0,0.0296,0.0295,0.0295,0.0283,0.0284,0.0284,0.0284,0.0149,0.0145,0.0141,0,0,0,0,0,0,0,0,0,0,0,0,0,0.0341,0.0341,0.034,0.034,0.0339,0.0296,0.0295,0.0295,0.0283,0.0284,0.0284,0.0284,0.015,0.0146,0.0141,0,0,0,0,0,0,0,0,0,0,0,0,0,0.0323,0.0341,0.034,0.0329,0.0327,0.0296,0.0295,0.0294,0.0283,0.0284,0.0284,0.0284,0.0152,0.0146,0.014,0.0095,0,0,0.0123,0.012,0,0,0,0,0,0,0,0,0.0324,0.0323,0.0331,0.0329,0.0328,0.0296,0.0246,0.0223,0.0283,0.0299,0.0284,0.0285,0.019,0.0181,0.0172,0.0089,0.0083,0.0122,0.0118,0.0116,0.0114,0,0,0,0,0,0,0,0.0325,0.0324,0.0322,0.033,0.0328,0.03,0.0299,0.0242,0.024,0.0298,0.0297,0.0293,0.0188,0.0178,0.0168,0.0081,0.0122,0.0117,0.0113,0.0111,-0.0083,-0.0084,0,0,0,0,0,0,0.0335,0.0326,0.0324,0.0321,0.0327,0.03,0.0298,0.0305,0.0243,0.0235,0.0292,0.0292,0.0187,0.0175,0.0163,0.0077,0.0116,0.0111,0.0107,-0.0081,-0.0083,-0.0085,0,0,0,0,0,0,0.0335,0.0336,0.0325,0.0322,0.0319,0.03,0.0307,0.0304,0.03,0.024,0.023,0.0292,0.0187,0.0172,0.0108,0.0072,0.0108,0.0103,-0.0079,-0.0082,-0.0084,-0.0079,0,0,0,0,0,0,0.0336,0.0336,0.0344,0.0323,0.0319,0.0306,0.0307,0.0303,0.0296,0.0296,0.0236,0.0224,0.0187,0.0117,0.0102,0.0065,0.0098,-0.0077,-0.008,-0.0083,-0.0077,-0.0081,-0.0084,0,0,0,0,0,0.0336,0.0342,0.0345,0.0345,0.0331,0.0305,0.03,0.0288,0.0296,0.0287,0.0246,0.0226,0.0087,0.0111,0.0094,0.0054,-0.0076,-0.008,-0.0083,-0.0075,-0.008,-0.0084,0,0,0,0,0,0,0.0334,0.0341,0.0344,0.0349,0.033,0.0304,0.0296,0.0292,0.0256,0.0254,0.0207,0.019,0.0117,0.0086,0.0115,-0.0012,0.0,-0.0007,0.0012,0.0007,0.0003,0.0014,0.0093,0,0,0,0,0,0.0342,0.0358,0.0342,0.0345,0.0338,0.032,0.031,0.0301,0.0268,0.0255,0.0209,0.0152,0.0086,0.0052,-0.0009,-0.0074,-0.0092,-0.0112,-0.0116,-0.0118,-0.0123,-0.0171,-0.0179,-0.0097,-0.0097,-0.0097,0,0,0.034,0.0347,0.0354,0.0348,0.0334,0.0304,0.0315,0.03,0.0266,0.0241,0.018,0.0136,0.0066,-0.0011,-0.0046,-0.0038,-0.0152,-0.0123,-0.0125,-0.0128,-0.0176,-0.0184,-0.0191,-0.01,-0.0099,-0.0099,0,0,0.0333,0.0352,0.0354,0.0338,0.0323,0.0303,0.0301,0.0271,0.0253,0.0194,0.016,0.0106,0.0008,-0.0046,-0.0087,-0.0147,-0.017,-0.0174,-0.0185,-0.0232,-0.0239,-0.0245,-0.0271,-0.0279,-0.0174,-0.0174,-0.0174,0,0.0325,0.0328,0.0345,0.0329,0.0309,0.0301,0.0271,0.0244,0.0194,0.0172,0.0171,0.0037,-0.0013,-0.0108,-0.0131,-0.0156,-0.0177,-0.0159,-0.0234,-0.0241,-0.0247,-0.0273,-0.0282,-0.0174,-0.0174,-0.0174,-0.0174,0,0.0308,0.0304,0.0299,0.028,0.0261,0.0236,0.0201,0.0177,0.0157,0.0127,0.0046,-0.0016,-0.0089,-0.0122,-0.0149,-0.0228,-0.0227,-0.0231,-0.0215,-0.0254,-0.0279,-0.0289,-0.0174,-0.0174,-0.0174,-0.0174,0,0,0.0294,0.029,0.0285,0.0272,0.0234,0.0217,0.0165,0.0116,0.0093,0.0035,-0.0011,-0.0117,-0.0125,-0.0172,-0.0211,-0.0253,-0.0311,-0.026,-0.0262,-0.0271,-0.0404,-0.0354,-0.0359,-0.0326,-0.0328,-0.033,-0.04,0,0.0265,0.0242,0.0239,0.0193,0.017,0.0151,0.0108,0.0069,0.0034,-0.0012,-0.0071,-0.0133,-0.0155,-0.0182,-0.0233,-0.0295,-0.0338,-0.0291,-0.0378,-0.0381,-0.0319,-0.037,-0.0336,-0.0407,-0.041,-0.0411,-0.0412,0,0.0235,0.0228,0.0191,0.0166,0.0155,0.0126,0.008,0.0042,-0.0017,-0.0041,-0.0101,-0.0141,-0.0226,-0.0225,-0.0347,-0.0316,-0.0363,-0.0402,-0.0406,-0.0367,-0.0349,-0.0365,-0.043,-0.0429,-0.0427,-0.0426,-0.0425,0,0.0221,0.0188,0.0167,0.0152,0.0119,0.0104,0.0083,0.0035,0.0014,-0.0053,-0.0071,-0.0172,-0.0215,-0.0299,-0.0376,-0.0369,-0.0492,-0.049,-0.0491,-0.0487,-0.051,-0.0503,-0.0577,-0.0577,-0.0577,-0.0576,-0.0576,0,0.0186,0.0164,0.0167,0.0152,0.013,0.011,0.0083,0.0053,0.0016,-0.0007,-0.0078,-0.0116,-0.0236,-0.0314,-0.0386,-0.0464,-0.0503,-0.0504,-0.051,-0.0506,-0.0498,-0.0516,-0.0509,-0.0579,-0.0578,-0.0578,-0.0577,0,0.016,0.0161,0.0138,0.0123,0.0124,0.011,0.01,0.0085,0.0052,0.002,0.0001,-0.0089,-0.0183,-0.0291,-0.0424,-0.0463,-0.0548,-0.0565,-0.0545,-0.0547,-0.051,-0.0501,-0.058,-0.0579,-0.0578,-0.0577,-0.0577,0,0.014,0.013,0.013,0.0133,0.0127,0.0119,0.0119,0.01,0.0093,0.0043,0.0031,-0.0063,-0.0128,-0.0271,-0.0389,-0.0522,-0.0532,-0.0574,-0.0556,-0.0516,-0.0514,-0.0507,-0.05,-0.0575,-0.0575,-0.0575,-0.0574,0,0.0096,0.0107,0.0098,0.0117,0.0125,0.0131,0.0136,0.0142,0.0125,0.0096,0.0065,-0.0015,-0.0116,-0.0242,-0.0345,-0.0442,-0.0548,-0.0565,-0.0567,-0.0551,-0.0512,-0.0509,-0.0503,-0.0571,-0.0572,-0.0572,-0.0572,0,0.0066,0.0062,0.0076,0.0092,0.0113,0.0142,0.0145,0.0154,0.0152,0.0122,0.0112,0.0003,-0.0069,-0.02,-0.0298,-0.0385,-0.0403,-0.0422,-0.0432,-0.0437,-0.0369,-0.0296,-0.0305,0,0,0,0,0,0.003,0.0038,0.0052,0.008,0.0112,0.0132,0.0155,0.0163,0.0165,0.0159,0.0144,0.0061,-0.0074,-0.0147,-0.0223,-0.0296,-0.0434,-0.0387,-0.0463,-0.0555,-0.0558,-0.0498,0,0,0,0,0,0,0.0004,0.0012,0.0039,0.008,0.0108,0.0143,0.0166,0.017,0.0174,0.0165,0.0093,0.0057,-0.0083,-0.0028,-0.0221,-0.0252,-0.0304,-0.0459,-0.046,-0.0553,-0.0556,-0.0559,-0.0498,0,0,0,0,0]}]]